Year,Month,Day,Hour,Minute,Value (Times are PST for temperature in C)
2015,06,23,00,00,16.60
2015,06,23,00,01,16.60
2015,06,23,00,02,16.60
2015,06,23,00,03,16.60
2015,06,23,00,04,16.60
2015,06,23,00,05,16.50
2015,06,23,00,06,16.50
2015,06,23,00,07,16.50
2015,06,23,00,08,16.50
2015,06,23,00,09,16.40
2015,06,23,00,10,16.40
2015,06,23,00,11,16.40
2015,06,23,00,12,16.40
2015,06,23,00,13,16.40
2015,06,23,00,14,16.30
2015,06,23,00,15,16.30
2015,06,23,00,16,16.30
2015,06,23,00,17,16.30
2015,06,23,00,18,16.30
2015,06,23,00,19,16.30
2015,06,23,00,20,16.30
2015,06,23,00,21,16.30
2015,06,23,00,22,16.30
2015,06,23,00,23,16.30
2015,06,23,00,24,16.20
2015,06,23,00,25,16.20
2015,06,23,00,26,16.20
2015,06,23,00,27,16.20
2015,06,23,00,28,16.20
2015,06,23,00,29,16.10
2015,06,23,00,30,16.10
2015,06,23,00,31,16.10
2015,06,23,00,32,16.10
2015,06,23,00,33,16.00
2015,06,23,00,34,16.00
2015,06,23,00,35,16.00
2015,06,23,00,36,15.90
2015,06,23,00,37,15.90
2015,06,23,00,38,15.90
2015,06,23,00,39,15.90
2015,06,23,00,40,15.90
2015,06,23,00,41,15.90
2015,06,23,00,42,15.80
2015,06,23,00,43,15.80
2015,06,23,00,44,15.80
2015,06,23,00,45,15.80
2015,06,23,00,46,15.80
2015,06,23,00,47,15.80
2015,06,23,00,48,15.80
2015,06,23,00,49,15.80
2015,06,23,00,50,15.80
2015,06,23,00,51,15.80
2015,06,23,00,52,15.80
2015,06,23,00,53,15.80
2015,06,23,00,54,15.70
2015,06,23,00,55,15.70
2015,06,23,00,56,15.70
2015,06,23,00,57,15.70
2015,06,23,00,58,15.70
2015,06,23,00,59,15.70
2015,06,23,01,00,15.70
2015,06,23,01,01,15.60
2015,06,23,01,02,15.60
2015,06,23,01,03,15.60
2015,06,23,01,04,15.60
2015,06,23,01,05,15.60
2015,06,23,01,06,15.60
2015,06,23,01,07,15.70
2015,06,23,01,08,15.70
2015,06,23,01,09,15.70
2015,06,23,01,10,15.70
2015,06,23,01,11,15.70
2015,06,23,01,12,15.70
2015,06,23,01,13,15.70
2015,06,23,01,14,15.70
2015,06,23,01,15,15.70
2015,06,23,01,16,15.70
2015,06,23,01,17,15.70
2015,06,23,01,18,15.80
2015,06,23,01,19,15.80
2015,06,23,01,20,15.80
2015,06,23,01,21,15.80
2015,06,23,01,22,15.80
2015,06,23,01,23,15.80
2015,06,23,01,24,15.80
2015,06,23,01,25,15.80
2015,06,23,01,26,15.80
2015,06,23,01,27,15.80
2015,06,23,01,28,15.80
2015,06,23,01,29,15.80
2015,06,23,01,30,15.80
2015,06,23,01,31,15.80
2015,06,23,01,32,15.70
2015,06,23,01,33,15.70
2015,06,23,01,34,15.70
2015,06,23,01,35,15.70
2015,06,23,01,36,15.70
2015,06,23,01,37,15.70
2015,06,23,01,38,15.70
2015,06,23,01,39,15.70
2015,06,23,01,40,15.70
2015,06,23,01,41,15.70
2015,06,23,01,42,15.60
2015,06,23,01,43,15.60
2015,06,23,01,44,15.60
2015,06,23,01,45,15.60
2015,06,23,01,46,15.60
2015,06,23,01,47,15.50
2015,06,23,01,48,15.50
2015,06,23,01,49,15.50
2015,06,23,01,50,15.50
2015,06,23,01,51,15.40
2015,06,23,01,52,15.40
2015,06,23,01,53,15.40
2015,06,23,01,54,15.40
2015,06,23,01,55,15.40
2015,06,23,01,56,15.40
2015,06,23,01,57,15.40
2015,06,23,01,58,15.40
2015,06,23,01,59,15.40
2015,06,23,02,00,15.30
2015,06,23,02,01,15.30
2015,06,23,02,02,15.30
2015,06,23,02,03,15.30
2015,06,23,02,04,15.30
2015,06,23,02,05,15.20
2015,06,23,02,06,15.20
2015,06,23,02,07,15.20
2015,06,23,02,08,15.20
2015,06,23,02,09,15.20
2015,06,23,02,10,15.10
2015,06,23,02,11,15.10
2015,06,23,02,12,15.10
2015,06,23,02,13,15.00
2015,06,23,02,14,15.00
2015,06,23,02,15,15.00
2015,06,23,02,16,15.00
2015,06,23,02,17,15.00
2015,06,23,02,18,15.00
2015,06,23,02,19,15.00
2015,06,23,02,20,14.90
2015,06,23,02,21,14.90
2015,06,23,02,22,14.80
2015,06,23,02,23,14.80
2015,06,23,02,24,14.80
2015,06,23,02,25,14.70
2015,06,23,02,26,14.70
2015,06,23,02,27,14.70
2015,06,23,02,28,14.60
2015,06,23,02,29,14.60
2015,06,23,02,30,14.60
2015,06,23,02,31,14.60
2015,06,23,02,32,14.50
2015,06,23,02,33,14.50
2015,06,23,02,34,14.50
2015,06,23,02,35,14.40
2015,06,23,02,36,14.40
2015,06,23,02,37,14.40
2015,06,23,02,38,14.40
2015,06,23,02,39,14.40
2015,06,23,02,40,14.40
2015,06,23,02,41,14.40
2015,06,23,02,42,14.30
2015,06,23,02,43,14.30
2015,06,23,02,44,14.30
2015,06,23,02,45,14.30
2015,06,23,02,46,14.30
2015,06,23,02,47,14.30
2015,06,23,02,48,14.30
2015,06,23,02,49,14.30
2015,06,23,02,50,14.30
2015,06,23,02,51,14.30
2015,06,23,02,52,14.30
2015,06,23,02,53,14.30
2015,06,23,02,54,14.30
2015,06,23,02,55,14.30
2015,06,23,02,56,14.30
2015,06,23,02,57,14.30
2015,06,23,02,58,14.30
2015,06,23,02,59,14.30
2015,06,23,03,00,14.30
2015,06,23,03,01,14.30
2015,06,23,03,02,14.30
2015,06,23,03,03,14.30
2015,06,23,03,04,14.30
2015,06,23,03,05,14.30
2015,06,23,03,06,14.30
2015,06,23,03,07,14.30
2015,06,23,03,08,14.30
2015,06,23,03,09,14.20
2015,06,23,03,10,14.20
2015,06,23,03,11,14.20
2015,06,23,03,12,14.20
2015,06,23,03,13,14.20
2015,06,23,03,14,14.20
2015,06,23,03,15,14.20
2015,06,23,03,16,14.10
2015,06,23,03,17,14.10
2015,06,23,03,18,14.10
2015,06,23,03,19,14.10
2015,06,23,03,20,14.00
2015,06,23,03,21,14.00
2015,06,23,03,22,13.90
2015,06,23,03,23,13.90
2015,06,23,03,24,13.90
2015,06,23,03,25,13.90
2015,06,23,03,26,13.90
2015,06,23,03,27,13.80
2015,06,23,03,28,13.80
2015,06,23,03,29,13.80
2015,06,23,03,30,13.80
2015,06,23,03,31,13.80
2015,06,23,03,32,13.80
2015,06,23,03,33,13.80
2015,06,23,03,34,13.80
2015,06,23,03,35,13.80
2015,06,23,03,36,13.80
2015,06,23,03,37,13.70
2015,06,23,03,38,13.70
2015,06,23,03,39,13.70
2015,06,23,03,40,13.70
2015,06,23,03,41,13.70
2015,06,23,03,42,13.70
2015,06,23,03,43,13.70
2015,06,23,03,44,13.70
2015,06,23,03,45,13.70
2015,06,23,03,46,13.60
2015,06,23,03,47,13.60
2015,06,23,03,48,13.60
2015,06,23,03,49,13.60
2015,06,23,03,50,13.60
2015,06,23,03,51,13.50
2015,06,23,03,52,13.50
2015,06,23,03,53,13.50
2015,06,23,03,54,13.40
2015,06,23,03,55,13.40
2015,06,23,03,56,13.40
2015,06,23,03,57,13.40
2015,06,23,03,58,13.40
2015,06,23,03,59,13.40
2015,06,23,04,00,13.30
2015,06,23,04,01,13.30
2015,06,23,04,02,13.30
2015,06,23,04,03,13.30
2015,06,23,04,04,13.30
2015,06,23,04,05,13.30
2015,06,23,04,06,13.30
2015,06,23,04,07,13.30
2015,06,23,04,08,13.30
2015,06,23,04,09,13.20
2015,06,23,04,10,13.20
2015,06,23,04,11,13.20
2015,06,23,04,12,13.20
2015,06,23,04,13,13.20
2015,06,23,04,14,13.10
2015,06,23,04,15,13.10
2015,06,23,04,16,13.10
2015,06,23,04,17,13.00
2015,06,23,04,18,13.00
2015,06,23,04,19,12.90
2015,06,23,04,20,12.90
2015,06,23,04,21,12.90
2015,06,23,04,22,12.80
2015,06,23,04,23,12.80
2015,06,23,04,24,12.80
2015,06,23,04,25,12.70
2015,06,23,04,26,12.70
2015,06,23,04,27,12.70
2015,06,23,04,28,12.70
2015,06,23,04,29,12.60
2015,06,23,04,30,12.60
2015,06,23,04,31,12.60
2015,06,23,04,32,12.60
2015,06,23,04,33,12.60
2015,06,23,04,34,12.50
2015,06,23,04,35,12.50
2015,06,23,04,36,12.50
2015,06,23,04,37,12.50
2015,06,23,04,38,12.40
2015,06,23,04,39,12.40
2015,06,23,04,40,12.40
2015,06,23,04,41,12.40
2015,06,23,04,42,12.30
2015,06,23,04,43,12.30
2015,06,23,04,44,12.30
2015,06,23,04,45,12.20
2015,06,23,04,46,12.20
2015,06,23,04,47,12.20
2015,06,23,04,48,12.20
2015,06,23,04,49,12.20
2015,06,23,04,50,12.20
2015,06,23,04,51,12.20
2015,06,23,04,52,12.20
2015,06,23,04,53,12.20
2015,06,23,04,54,12.20
2015,06,23,04,55,12.20
2015,06,23,04,56,12.20
2015,06,23,04,57,12.20
2015,06,23,04,58,12.20
2015,06,23,04,59,12.20
2015,06,23,05,00,12.20
2015,06,23,05,01,12.20
2015,06,23,05,02,12.20
2015,06,23,05,03,12.20
2015,06,23,05,04,12.10
2015,06,23,05,05,12.10
2015,06,23,05,06,12.10
2015,06,23,05,07,12.10
2015,06,23,05,08,12.00
2015,06,23,05,09,12.00
2015,06,23,05,10,12.00
2015,06,23,05,11,11.90
2015,06,23,05,12,11.90
2015,06,23,05,13,11.90
2015,06,23,05,14,11.80
2015,06,23,05,15,11.80
2015,06,23,05,16,11.80
2015,06,23,05,17,11.80
2015,06,23,05,18,11.80
2015,06,23,05,19,11.70
2015,06,23,05,20,11.70
2015,06,23,05,21,11.70
2015,06,23,05,22,11.70
2015,06,23,05,23,11.70
2015,06,23,05,24,11.70
2015,06,23,05,25,11.60
2015,06,23,05,26,11.60
2015,06,23,05,27,11.60
2015,06,23,05,28,11.60
2015,06,23,05,29,11.60
2015,06,23,05,30,11.60
2015,06,23,05,31,11.50
2015,06,23,05,32,11.50
2015,06,23,05,33,11.50
2015,06,23,05,34,11.40
2015,06,23,05,35,11.40
2015,06,23,05,36,11.40
2015,06,23,05,37,11.40
2015,06,23,05,38,11.40
2015,06,23,05,39,11.40
2015,06,23,05,40,11.30
2015,06,23,05,41,11.30
2015,06,23,05,42,11.30
2015,06,23,05,43,11.40
2015,06,23,05,44,11.40
2015,06,23,05,45,11.40
2015,06,23,05,46,11.40
2015,06,23,05,47,11.50
2015,06,23,05,48,11.50
2015,06,23,05,49,11.60
2015,06,23,05,50,11.60
2015,06,23,05,51,11.70
2015,06,23,05,52,11.70
2015,06,23,05,53,11.80
2015,06,23,05,54,11.80
2015,06,23,05,55,11.90
2015,06,23,05,56,11.90
2015,06,23,05,57,11.90
2015,06,23,05,58,12.00
2015,06,23,05,59,12.00
2015,06,23,06,00,12.10
2015,06,23,06,01,12.10
2015,06,23,06,02,12.20
2015,06,23,06,03,12.20
2015,06,23,06,04,12.20
2015,06,23,06,05,12.20
2015,06,23,06,06,12.20
2015,06,23,06,07,12.30
2015,06,23,06,08,12.30
2015,06,23,06,09,12.30
2015,06,23,06,10,12.30
2015,06,23,06,11,12.30
2015,06,23,06,12,12.40
2015,06,23,06,13,12.40
2015,06,23,06,14,12.40
2015,06,23,06,15,12.40
2015,06,23,06,16,12.40
2015,06,23,06,17,12.40
2015,06,23,06,18,12.50
2015,06,23,06,19,12.50
2015,06,23,06,20,12.50
2015,06,23,06,21,12.50
2015,06,23,06,22,12.50
2015,06,23,06,23,12.60
2015,06,23,06,24,12.60
2015,06,23,06,25,12.60
2015,06,23,06,26,12.60
2015,06,23,06,27,12.60
2015,06,23,06,28,12.70
2015,06,23,06,29,12.70
2015,06,23,06,30,12.70
2015,06,23,06,31,12.70
2015,06,23,06,32,12.70
2015,06,23,06,33,12.70
2015,06,23,06,34,12.70
2015,06,23,06,35,12.70
2015,06,23,06,36,12.70
2015,06,23,06,37,12.70
2015,06,23,06,38,12.80
2015,06,23,06,39,12.80
2015,06,23,06,40,12.80
2015,06,23,06,41,12.80
2015,06,23,06,42,12.80
2015,06,23,06,43,12.80
2015,06,23,06,44,12.90
2015,06,23,06,45,12.90
2015,06,23,06,46,12.90
2015,06,23,06,47,13.00
2015,06,23,06,48,13.00
2015,06,23,06,49,13.00
2015,06,23,06,50,13.10
2015,06,23,06,51,13.10
2015,06,23,06,52,13.10
2015,06,23,06,53,13.20
2015,06,23,06,54,13.20
2015,06,23,06,55,13.20
2015,06,23,06,56,13.20
2015,06,23,06,57,13.30
2015,06,23,06,58,13.30
2015,06,23,06,59,13.30
2015,06,23,07,00,13.30
2015,06,23,07,01,13.30
2015,06,23,07,02,13.30
2015,06,23,07,03,13.40
2015,06,23,07,04,13.40
2015,06,23,07,05,13.40
2015,06,23,07,06,13.40
2015,06,23,07,07,13.40
2015,06,23,07,08,13.50
2015,06,23,07,09,13.50
2015,06,23,07,10,13.50
2015,06,23,07,11,13.60
2015,06,23,07,12,13.60
2015,06,23,07,13,13.60
2015,06,23,07,14,13.60
2015,06,23,07,15,13.70
2015,06,23,07,16,13.70
2015,06,23,07,17,13.70
2015,06,23,07,18,13.70
2015,06,23,07,19,13.80
2015,06,23,07,20,13.80
2015,06,23,07,21,13.90
2015,06,23,07,22,13.90
2015,06,23,07,23,13.90
2015,06,23,07,24,14.00
2015,06,23,07,25,14.00
2015,06,23,07,26,14.10
2015,06,23,07,27,14.10
2015,06,23,07,28,14.20
2015,06,23,07,29,14.20
2015,06,23,07,30,14.30
2015,06,23,07,31,14.30
2015,06,23,07,32,14.30
2015,06,23,07,33,14.30
2015,06,23,07,34,14.40
2015,06,23,07,35,14.40
2015,06,23,07,36,14.40
2015,06,23,07,37,14.40
2015,06,23,07,38,14.40
2015,06,23,07,39,14.40
2015,06,23,07,40,14.40
2015,06,23,07,41,14.40
2015,06,23,07,42,14.40
2015,06,23,07,43,14.50
2015,06,23,07,44,14.50
2015,06,23,07,45,14.50
2015,06,23,07,46,14.50
2015,06,23,07,47,14.60
2015,06,23,07,48,14.60
2015,06,23,07,49,14.60
2015,06,23,07,50,14.60
2015,06,23,07,51,14.60
2015,06,23,07,52,14.60
2015,06,23,07,53,14.60
2015,06,23,07,54,14.70
2015,06,23,07,55,14.70
2015,06,23,07,56,14.70
2015,06,23,07,57,14.80
2015,06,23,07,58,14.80
2015,06,23,07,59,14.80
2015,06,23,08,00,14.90
2015,06,23,08,01,14.90
2015,06,23,08,02,15.00
2015,06,23,08,03,15.00
2015,06,23,08,04,15.00
2015,06,23,08,05,15.10
2015,06,23,08,06,15.20
2015,06,23,08,07,15.30
2015,06,23,08,08,15.40
2015,06,23,08,09,15.50
2015,06,23,08,10,15.50
2015,06,23,08,11,15.60
2015,06,23,08,12,15.70
2015,06,23,08,13,15.70
2015,06,23,08,14,15.80
2015,06,23,08,15,15.80
2015,06,23,08,16,15.90
2015,06,23,08,17,15.90
2015,06,23,08,18,16.00
2015,06,23,08,19,16.10
2015,06,23,08,20,16.20
2015,06,23,08,21,16.30
2015,06,23,08,22,16.30
2015,06,23,08,23,16.40
2015,06,23,08,24,16.40
2015,06,23,08,25,16.40
2015,06,23,08,26,16.50
2015,06,23,08,27,16.60
2015,06,23,08,28,16.70
2015,06,23,08,29,16.80
2015,06,23,08,30,16.80
2015,06,23,08,31,16.80
2015,06,23,08,32,16.90
2015,06,23,08,33,16.90
2015,06,23,08,34,16.90
2015,06,23,08,35,16.90
2015,06,23,08,36,16.90
2015,06,23,08,37,16.90
2015,06,23,08,38,16.90
2015,06,23,08,39,16.90
2015,06,23,08,40,16.90
2015,06,23,08,41,16.90
2015,06,23,08,42,16.90
2015,06,23,08,43,16.90
2015,06,23,08,44,16.80
2015,06,23,08,45,16.80
2015,06,23,08,46,16.70
2015,06,23,08,47,16.70
2015,06,23,08,48,16.70
2015,06,23,08,49,16.70
2015,06,23,08,50,16.70
2015,06,23,08,51,16.60
2015,06,23,08,52,16.60
2015,06,23,08,53,16.60
2015,06,23,08,54,16.60
2015,06,23,08,55,16.60
2015,06,23,08,56,16.70
2015,06,23,08,57,16.80
2015,06,23,08,58,16.80
2015,06,23,08,59,16.80
2015,06,23,09,00,16.90
2015,06,23,09,01,17.00
2015,06,23,09,02,17.10
2015,06,23,09,03,17.10
2015,06,23,09,04,17.20
2015,06,23,09,05,17.30
2015,06,23,09,06,17.30
2015,06,23,09,07,17.40
2015,06,23,09,08,17.50
2015,06,23,09,09,17.50
2015,06,23,09,10,17.60
2015,06,23,09,11,17.70
2015,06,23,09,12,17.80
2015,06,23,09,13,17.80
2015,06,23,09,14,17.90
2015,06,23,09,15,17.90
2015,06,23,09,16,18.00
2015,06,23,09,17,18.10
2015,06,23,09,18,18.10
2015,06,23,09,19,18.20
2015,06,23,09,20,18.20
2015,06,23,09,21,18.20
2015,06,23,09,22,18.20
2015,06,23,09,23,18.30
2015,06,23,09,24,18.30
2015,06,23,09,25,18.30
2015,06,23,09,26,18.10
2015,06,23,09,27,17.90
2015,06,23,09,28,17.80
2015,06,23,09,29,17.60
2015,06,23,09,30,17.60
2015,06,23,09,31,17.60
2015,06,23,09,32,17.60
2015,06,23,09,33,17.60
2015,06,23,09,34,17.50
2015,06,23,09,35,17.50
2015,06,23,09,36,17.60
2015,06,23,09,37,17.60
2015,06,23,09,38,17.70
2015,06,23,09,39,17.80
2015,06,23,09,40,17.90
2015,06,23,09,41,17.90
2015,06,23,09,42,17.90
2015,06,23,09,43,18.00
2015,06,23,09,44,18.00
2015,06,23,09,45,18.10
2015,06,23,09,46,18.10
2015,06,23,09,47,18.10
2015,06,23,09,48,18.10
2015,06,23,09,49,18.00
2015,06,23,09,50,18.00
2015,06,23,09,51,17.90
2015,06,23,09,52,17.80
2015,06,23,09,53,17.70
2015,06,23,09,54,17.60
2015,06,23,09,55,17.70
2015,06,23,09,56,17.70
2015,06,23,09,57,17.80
2015,06,23,09,58,17.90
2015,06,23,09,59,18.00
2015,06,23,10,00,18.10
2015,06,23,10,01,18.10
2015,06,23,10,02,18.10
2015,06,23,10,03,18.20
2015,06,23,10,04,18.20
2015,06,23,10,05,18.30
2015,06,23,10,06,18.30
2015,06,23,10,07,18.40
2015,06,23,10,08,18.40
2015,06,23,10,09,18.30
2015,06,23,10,10,18.30
2015,06,23,10,11,18.30
2015,06,23,10,12,18.30
2015,06,23,10,13,18.30
2015,06,23,10,14,18.30
2015,06,23,10,15,18.30
2015,06,23,10,16,18.30
2015,06,23,10,17,18.30
2015,06,23,10,18,18.30
2015,06,23,10,19,18.30
2015,06,23,10,20,18.30
2015,06,23,10,21,18.40
2015,06,23,10,22,18.40
2015,06,23,10,23,18.40
2015,06,23,10,24,18.50
2015,06,23,10,25,18.60
2015,06,23,10,26,18.60
2015,06,23,10,27,18.50
2015,06,23,10,28,18.40
2015,06,23,10,29,18.40
2015,06,23,10,30,18.40
2015,06,23,10,31,18.50
2015,06,23,10,32,18.50
2015,06,23,10,33,18.40
2015,06,23,10,34,18.40
2015,06,23,10,35,18.50
2015,06,23,10,36,18.60
2015,06,23,10,37,18.70
2015,06,23,10,38,18.70
2015,06,23,10,39,18.80
2015,06,23,10,40,18.80
2015,06,23,10,41,18.80
2015,06,23,10,42,18.90
2015,06,23,10,43,19.00
2015,06,23,10,44,19.00
2015,06,23,10,45,19.10
2015,06,23,10,46,19.20
2015,06,23,10,47,19.20
2015,06,23,10,48,19.20
2015,06,23,10,49,19.30
2015,06,23,10,50,19.20
2015,06,23,10,51,19.20
2015,06,23,10,52,19.20
2015,06,23,10,53,19.20
2015,06,23,10,54,19.20
2015,06,23,10,55,19.20
2015,06,23,10,56,19.20
2015,06,23,10,57,19.30
2015,06,23,10,58,19.30
2015,06,23,10,59,19.30
2015,06,23,11,00,19.30
2015,06,23,11,01,19.30
2015,06,23,11,02,19.40
2015,06,23,11,03,19.40
2015,06,23,11,04,19.40
2015,06,23,11,05,19.30
2015,06,23,11,06,19.30
2015,06,23,11,07,19.30
2015,06,23,11,08,19.30
2015,06,23,11,09,19.30
2015,06,23,11,10,19.40
2015,06,23,11,11,19.40
2015,06,23,11,12,19.40
2015,06,23,11,13,19.40
2015,06,23,11,14,19.40
2015,06,23,11,15,19.40
2015,06,23,11,16,19.40
2015,06,23,11,17,19.30
2015,06,23,11,18,19.40
2015,06,23,11,19,19.40
2015,06,23,11,20,19.40
2015,06,23,11,21,19.40
2015,06,23,11,22,19.40
2015,06,23,11,23,19.40
2015,06,23,11,24,19.40
2015,06,23,11,25,19.40
2015,06,23,11,26,19.40
2015,06,23,11,27,19.40
2015,06,23,11,28,19.40
2015,06,23,11,29,19.40
2015,06,23,11,30,19.40
2015,06,23,11,31,19.40
2015,06,23,11,32,19.40
2015,06,23,11,33,19.30
2015,06,23,11,34,19.10
2015,06,23,11,35,19.10
2015,06,23,11,36,19.10
2015,06,23,11,37,19.10
2015,06,23,11,38,19.10
2015,06,23,11,39,19.20
2015,06,23,11,40,19.30
2015,06,23,11,41,19.30
2015,06,23,11,42,19.30
2015,06,23,11,43,19.40
2015,06,23,11,44,19.40
2015,06,23,11,45,19.40
2015,06,23,11,46,19.40
2015,06,23,11,47,19.40
2015,06,23,11,48,19.40
2015,06,23,11,49,19.40
2015,06,23,11,50,19.40
2015,06,23,11,51,19.30
2015,06,23,11,52,19.30
2015,06,23,11,53,19.30
2015,06,23,11,54,19.30
2015,06,23,11,55,19.30
2015,06,23,11,56,19.40
2015,06,23,11,57,19.40
2015,06,23,11,58,19.30
2015,06,23,11,59,19.20
2015,06,23,12,00,19.10
2015,06,23,12,01,19.10
2015,06,23,12,02,19.10
2015,06,23,12,03,19.20
2015,06,23,12,04,19.20
2015,06,23,12,05,19.30
2015,06,23,12,06,19.30
2015,06,23,12,07,19.30
2015,06,23,12,08,19.30
2015,06,23,12,09,19.30
2015,06,23,12,10,19.30
2015,06,23,12,11,19.40
2015,06,23,12,12,19.40
2015,06,23,12,13,19.50
2015,06,23,12,14,19.60
2015,06,23,12,15,19.60
2015,06,23,12,16,19.70
2015,06,23,12,17,19.80
2015,06,23,12,18,19.80
2015,06,23,12,19,19.90
2015,06,23,12,20,19.90
2015,06,23,12,21,19.90
2015,06,23,12,22,19.90
2015,06,23,12,23,19.80
2015,06,23,12,24,19.90
2015,06,23,12,25,19.90
2015,06,23,12,26,19.80
2015,06,23,12,27,19.90
2015,06,23,12,28,19.90
2015,06,23,12,29,19.90
2015,06,23,12,30,20.00
2015,06,23,12,31,20.00
2015,06,23,12,32,20.00
2015,06,23,12,33,19.90
2015,06,23,12,34,19.70
2015,06,23,12,35,19.70
2015,06,23,12,36,19.70
2015,06,23,12,37,19.70
2015,06,23,12,38,19.80
2015,06,23,12,39,19.80
2015,06,23,12,40,19.80
2015,06,23,12,41,19.80
2015,06,23,12,42,19.70
2015,06,23,12,43,19.60
2015,06,23,12,44,19.60
2015,06,23,12,45,19.60
2015,06,23,12,46,19.70
2015,06,23,12,47,19.70
2015,06,23,12,48,19.70
2015,06,23,12,49,19.70
2015,06,23,12,50,19.70
2015,06,23,12,51,19.70
2015,06,23,12,52,19.70
2015,06,23,12,53,19.70
2015,06,23,12,54,19.80
2015,06,23,12,55,19.80
2015,06,23,12,56,19.80
2015,06,23,12,57,19.80
2015,06,23,12,58,19.80
2015,06,23,12,59,19.70
2015,06,23,13,00,19.60
2015,06,23,13,01,19.60
2015,06,23,13,02,19.60
2015,06,23,13,03,19.60
2015,06,23,13,04,19.70
2015,06,23,13,05,19.70
2015,06,23,13,06,19.80
2015,06,23,13,07,19.80
2015,06,23,13,08,19.80
2015,06,23,13,09,19.80
2015,06,23,13,10,19.90
2015,06,23,13,11,19.90
2015,06,23,13,12,19.90
2015,06,23,13,13,19.90
2015,06,23,13,14,19.80
2015,06,23,13,15,19.80
2015,06,23,13,16,19.80
2015,06,23,13,17,19.90
2015,06,23,13,18,20.00
2015,06,23,13,19,20.10
2015,06,23,13,20,20.10
2015,06,23,13,21,20.20
2015,06,23,13,22,20.20
2015,06,23,13,23,20.20
2015,06,23,13,24,20.20
2015,06,23,13,25,20.20
2015,06,23,13,26,20.20
2015,06,23,13,27,20.20
2015,06,23,13,28,20.30
2015,06,23,13,29,20.30
2015,06,23,13,30,20.40
2015,06,23,13,31,20.50
2015,06,23,13,32,20.60
2015,06,23,13,33,20.60
2015,06,23,13,34,20.70
2015,06,23,13,35,20.70
2015,06,23,13,36,20.80
2015,06,23,13,37,20.70
2015,06,23,13,38,20.70
2015,06,23,13,39,20.70
2015,06,23,13,40,20.70
2015,06,23,13,41,20.70
2015,06,23,13,42,20.80
2015,06,23,13,43,20.80
2015,06,23,13,44,20.80
2015,06,23,13,45,20.80
2015,06,23,13,46,20.80
2015,06,23,13,47,20.80
2015,06,23,13,48,20.90
2015,06,23,13,49,20.90
2015,06,23,13,50,20.90
2015,06,23,13,51,20.80
2015,06,23,13,52,20.80
2015,06,23,13,53,20.80
2015,06,23,13,54,20.80
2015,06,23,13,55,20.80
2015,06,23,13,56,20.80
2015,06,23,13,57,20.80
2015,06,23,13,58,20.80
2015,06,23,13,59,20.80
2015,06,23,14,00,20.90
2015,06,23,14,01,20.90
2015,06,23,14,02,20.90
2015,06,23,14,03,20.90
2015,06,23,14,04,20.90
2015,06,23,14,05,21.00
2015,06,23,14,06,20.90
2015,06,23,14,07,20.90
2015,06,23,14,08,20.90
2015,06,23,14,09,20.90
2015,06,23,14,10,21.00
2015,06,23,14,11,21.10
2015,06,23,14,12,21.20
2015,06,23,14,13,21.20
2015,06,23,14,14,21.20
2015,06,23,14,15,21.30
2015,06,23,14,16,21.30
2015,06,23,14,17,21.30
2015,06,23,14,18,21.40
2015,06,23,14,19,21.50
2015,06,23,14,20,21.50
2015,06,23,14,21,21.60
2015,06,23,14,22,21.60
2015,06,23,14,23,21.60
2015,06,23,14,24,21.80
2015,06,23,14,25,21.90
2015,06,23,14,26,22.00
2015,06,23,14,27,22.10
2015,06,23,14,28,22.10
2015,06,23,14,29,22.20
2015,06,23,14,30,22.20
2015,06,23,14,31,22.20
2015,06,23,14,32,22.20
2015,06,23,14,33,22.20
2015,06,23,14,34,22.30
2015,06,23,14,35,22.30
2015,06,23,14,36,22.30
2015,06,23,14,37,22.20
2015,06,23,14,38,22.20
2015,06,23,14,39,22.20
2015,06,23,14,40,22.10
2015,06,23,14,41,22.10
2015,06,23,14,42,22.10
2015,06,23,14,43,22.10
2015,06,23,14,44,22.10
2015,06,23,14,45,22.20
2015,06,23,14,46,22.30
2015,06,23,14,47,22.40
2015,06,23,14,48,22.60
2015,06,23,14,49,22.80
2015,06,23,14,50,22.90
2015,06,23,14,51,23.00
2015,06,23,14,52,23.10
2015,06,23,14,53,23.20
2015,06,23,14,54,23.30
2015,06,23,14,55,23.40
2015,06,23,14,56,23.50
2015,06,23,14,57,23.60
2015,06,23,14,58,23.60
2015,06,23,14,59,23.60
2015,06,23,15,00,23.50
2015,06,23,15,01,23.40
2015,06,23,15,02,23.30
2015,06,23,15,03,23.10
2015,06,23,15,04,23.00
2015,06,23,15,05,22.90
2015,06,23,15,06,22.80
2015,06,23,15,07,22.80
2015,06,23,15,08,22.80
2015,06,23,15,09,22.80
2015,06,23,15,10,22.70
2015,06,23,15,11,22.50
2015,06,23,15,12,22.30
2015,06,23,15,13,22.20
2015,06,23,15,14,22.20
2015,06,23,15,15,22.10
2015,06,23,15,16,22.20
2015,06,23,15,17,22.20
2015,06,23,15,18,22.20
2015,06,23,15,19,22.30
2015,06,23,15,20,22.30
2015,06,23,15,21,22.30
2015,06,23,15,22,22.40
2015,06,23,15,23,22.40
2015,06,23,15,24,22.60
2015,06,23,15,25,22.60
2015,06,23,15,26,22.70
2015,06,23,15,27,22.80
2015,06,23,15,28,22.80
2015,06,23,15,29,22.80
2015,06,23,15,30,22.80
2015,06,23,15,31,22.80
2015,06,23,15,32,22.80
2015,06,23,15,33,22.70
2015,06,23,15,34,22.70
2015,06,23,15,35,22.60
2015,06,23,15,36,22.50
2015,06,23,15,37,22.40
2015,06,23,15,38,22.30
2015,06,23,15,39,22.20
2015,06,23,15,40,22.10
2015,06,23,15,41,22.00
2015,06,23,15,42,21.90
2015,06,23,15,43,21.80
2015,06,23,15,44,21.70
2015,06,23,15,45,21.70
2015,06,23,15,46,21.70
2015,06,23,15,47,21.60
2015,06,23,15,48,21.50
2015,06,23,15,49,21.40
2015,06,23,15,50,21.40
2015,06,23,15,51,21.30
2015,06,23,15,52,21.30
2015,06,23,15,53,21.30
2015,06,23,15,54,21.20
2015,06,23,15,55,21.20
2015,06,23,15,56,21.10
2015,06,23,15,57,21.00
2015,06,23,15,58,20.90
2015,06,23,15,59,21.00
2015,06,23,16,00,20.90
2015,06,23,16,01,21.00
2015,06,23,16,02,21.00
2015,06,23,16,03,21.00
2015,06,23,16,04,21.10
2015,06,23,16,05,21.00
2015,06,23,16,06,20.90
2015,06,23,16,07,20.80
2015,06,23,16,08,20.80
2015,06,23,16,09,20.80
2015,06,23,16,10,20.90
2015,06,23,16,11,20.90
2015,06,23,16,12,20.90
2015,06,23,16,13,20.90
2015,06,23,16,14,20.80
2015,06,23,16,15,20.80
2015,06,23,16,16,20.90
2015,06,23,16,17,20.90
2015,06,23,16,18,20.90
2015,06,23,16,19,20.80
2015,06,23,16,20,20.70
2015,06,23,16,21,20.60
2015,06,23,16,22,20.60
2015,06,23,16,23,20.50
2015,06,23,16,24,20.40
2015,06,23,16,25,20.30
2015,06,23,16,26,20.30
2015,06,23,16,27,20.30
2015,06,23,16,28,20.40
2015,06,23,16,29,20.50
2015,06,23,16,30,20.70
2015,06,23,16,31,20.80
2015,06,23,16,32,21.00
2015,06,23,16,33,21.10
2015,06,23,16,34,21.30
2015,06,23,16,35,21.50
2015,06,23,16,36,21.80
2015,06,23,16,37,22.00
2015,06,23,16,38,22.30
2015,06,23,16,39,22.40
2015,06,23,16,40,22.60
2015,06,23,16,41,22.70
2015,06,23,16,42,22.80
2015,06,23,16,43,23.00
2015,06,23,16,44,23.20
2015,06,23,16,45,23.40
2015,06,23,16,46,23.60
2015,06,23,16,47,23.70
2015,06,23,16,48,23.90
2015,06,23,16,49,24.00
2015,06,23,16,50,24.10
2015,06,23,16,51,24.20
2015,06,23,16,52,24.20
2015,06,23,16,53,24.30
2015,06,23,16,54,24.30
2015,06,23,16,55,24.40
2015,06,23,16,56,24.50
2015,06,23,16,57,24.60
2015,06,23,16,58,24.70
2015,06,23,16,59,24.70
2015,06,23,17,00,24.80
2015,06,23,17,01,24.80
2015,06,23,17,02,24.80
2015,06,23,17,03,24.80
2015,06,23,17,04,24.90
2015,06,23,17,05,24.90
2015,06,23,17,06,25.00
2015,06,23,17,07,25.20
2015,06,23,17,08,25.30
2015,06,23,17,09,25.40
2015,06,23,17,10,25.50
2015,06,23,17,11,25.50
2015,06,23,17,12,25.40
2015,06,23,17,13,25.40
2015,06,23,17,14,25.40
2015,06,23,17,15,25.30
2015,06,23,17,16,25.30
2015,06,23,17,17,25.30
2015,06,23,17,18,25.30
2015,06,23,17,19,25.30